map of KWI home
Great Circle Mapper logo
KWI - Airport
Location
City:  Kuwait City, Kuwait
Name:Kuwait International Airport
ICAO / IATA:OKBK / KWI

Details
Type:Airport (Aerodrome, Airfield)
Use:Public/Civil, Military, International (customs port of entry)
Latitude:2913'36"N (29.226667)
Longitude:4758'47"E (47.979722)
Elevation:206 ft (63 m)
Variation:3.4E (WMM2010 magnetic declination)
Runways:2
Longest:11483 × 148 ft (3500 × 45 m), paved

Time
Time Zone:UTC+3
Local Time:

Weather
METAR:OKBK 221600Z 13003KT 8000 NSC 23/18 Q1012 NOSIG
TAF:OKBK 221645Z 2218/2324 VRB05KT 8000 NSC
BECMG 2220/2222 34012G20KT 6000 FEW040 BKN080 PROB30
TEMPO 2306/2318 4000 -RA

Related Locations
Nearby:
Farthest:GMR: 11973 mi / 19269 km
Mangareva [Totegegie], Gambier Islands, PF

Find:

   beyond  
but within

Other Information
Maps:
NOTAMs:
Links:
Sources:

  
flag of Kuwait   

Airport Diagram

Airport diagram for KWI

Airport diagram (OBSOLETE) from NGA

Sectional Chart

Flight Planning
at skyvector.com

Satellite Image

Google Maps Satellite View

 

Copyright © 2004-2014 Karl L. Swartz. All rights reserved.
The Great Circle Mapper name and logo are trademarks of the Great Circle Mapper.
All other trademarks mentioned herein belong to their respective owners.
Please see credits for attibutions and further copyright information.

  Follow gcmap on Facebook Follow gcmap on Twitter

hCard Microformat

Geo Microformat